| time (UTC) | temp F | wind direction | speed MPH | gust MPH | rain 1hr in | rain 24hr in | rain mn in | humidity % | barometer mb |
| 20260905061502 | 60 | 260 | 0.0 | 1.0 | 0.00 | 0.06 | 0.00 | 88 | 1006.2 |
| 20260905060001 | 60 | 259 | 0.0 | 1.0 | 0.00 | 0.06 | 0.00 | 88 | 1006.1 |
| 20260905054600 | 60 | 260 | 0.0 | 2.0 | 0.00 | 0.06 | 0.00 | 89 | 1006.1 |
| 20260905053059 | 59 | 264 | 1.0 | 2.0 | 0.00 | 0.06 | 0.00 | 89 | 1006.2 |
| 20260905051557 | 59 | 264 | 0.0 | 1.0 | 0.00 | 0.06 | 0.00 | 88 | 1006.2 |
| 20260905050056 | 59 | 264 | 0.0 | 1.0 | 0.00 | 0.06 | 0.00 | 87 | 1006.3 |
| 20260905044556 | 60 | 264 | 0.0 | 1.0 | 0.00 | 0.06 | 0.00 | 87 | 1006.4 |
| 20260905043113 | 60 | 264 | 0.0 | 1.0 | 0.00 | 0.06 | 0.00 | 87 | 1006.3 |
| 20260905041550 | 60 | 264 | 0.0 | 1.0 | 0.00 | 0.06 | 0.00 | 87 | 1006.2 |
| 20260905040112 | 61 | 264 | 0.0 | 1.0 | 0.00 | 0.06 | 0.00 | 87 | 1006.5 |
| 20260905034546 | 61 | 264 | 0.0 | 1.0 | 0.00 | 0.06 | 0.06 | 87 | 1006.4 |
| 20260905033045 | 62 | 264 | 0.0 | 1.0 | 0.00 | 0.06 | 0.06 | 87 | 1006.4 |
| 20260905031544 | 62 | 264 | 0.0 | 1.0 | 0.00 | 0.06 | 0.06 | 87 | 1006.4 |
| 20260905030045 | 62 | 264 | 0.0 | 2.0 | 0.00 | 0.06 | 0.06 | 87 | 1006.6 |
| 20260905024544 | 62 | 264 | 0.0 | 2.0 | 0.00 | 0.06 | 0.06 | 87 | 1006.6 |
| 20260905023044 | 62 | 306 | 0.0 | 4.0 | 0.00 | 0.06 | 0.06 | 87 | 1006.5 |
| 20260905021548 | 62 | 355 | 0.0 | 3.0 | 0.00 | 0.06 | 0.06 | 87 | 1006.6 |
| 20260905020042 | 63 | 277 | 0.0 | 3.0 | 0.00 | 0.06 | 0.06 | 87 | 1006.8 |
| 20260905014541 | 63 | 298 | 0.0 | 1.0 | 0.00 | 0.06 | 0.06 | 87 | 1006.7 |
| 20260905013044 | 63 | 297 | 0.0 | 4.0 | 0.00 | 0.06 | 0.06 | 86 | 1006.8 |
| 20260905011539 | 64 | 323 | 0.0 | 2.0 | 0.00 | 0.06 | 0.06 | 86 | 1006.9 |
| 20260905010044 | 64 | 323 | 0.0 | 1.0 | 0.00 | 0.06 | 0.06 | 86 | 1006.8 |
| 20260905004540 | 65 | 262 | 0.0 | 3.0 | 0.00 | 0.06 | 0.06 | 87 | 1006.8 |
| 20260905003038 | 64 | 196 | 0.0 | 2.0 | 0.00 | 0.06 | 0.06 | 86 | 1006.8 |
| 20260905001538 | 65 | 195 | 0.0 | 2.0 | 0.00 | 0.06 | 0.06 | 86 | 1006.8 |
| 20260905000038 | 65 | 167 | 0.0 | 3.0 | 0.00 | 0.06 | 0.06 | 86 | 1006.7 |
| 20260904234544 | 66 | 160 | 0.0 | 3.0 | 0.00 | 0.06 | 0.06 | 85 | 1006.4 |
| 20260904233036 | 67 | 236 | 0.0 | 2.0 | 0.00 | 0.06 | 0.06 | 86 | 1006.4 |
| 20260904231536 | 67 | 277 | 0.0 | 2.0 | 0.00 | 0.06 | 0.06 | 86 | 1006.2 |
| 20260904230035 | 68 | 277 | 0.0 | 2.0 | 0.00 | 0.06 | 0.06 | 86 | 1006.3 |
| 20260904224541 | 68 | 277 | 0.0 | 1.0 | 0.00 | 0.06 | 0.06 | 86 | 1006.4 |
| 20260904223034 | 69 | 277 | 0.0 | 2.0 | 0.00 | 0.06 | 0.06 | 86 | 1006.1 |
| 20260904221534 | 69 | 277 | 0.0 | 1.0 | 0.00 | 0.06 | 0.06 | 85 | 1006.1 |
| 20260904220054 | 70 | 277 | 0.0 | 1.0 | 0.00 | 0.06 | 0.06 | 85 | 1006.3 |
| 20260904214537 | 70 | 277 | 0.0 | 2.0 | 0.00 | 0.06 | 0.06 | 85 | 1006.1 |
| 20260904213033 | 70 | 44 | 0.0 | 2.0 | 0.00 | 0.06 | 0.06 | 85 | 1006.0 |
| 20260904211536 | 71 | 32 | 0.0 | 4.0 | 0.00 | 0.06 | 0.06 | 84 | 1006.1 |
| 20260904210041 | 72 | 262 | 0.0 | 2.0 | 0.00 | 0.06 | 0.06 | 86 | 1006.0 |
| 20260904204532 | 73 | 117 | 0.0 | 1.0 | 0.00 | 0.06 | 0.06 | 86 | 1006.0 |
| 20260904203043 | 73 | 117 | 0.0 | 1.0 | 0.00 | 0.06 | 0.06 | 87 | 1005.9 |
| 20260904201530 | 72 | 117 | 0.0 | 0.0 | 0.00 | 0.06 | 0.06 | 87 | 1005.8 |
| 20260904200030 | 72 | 117 | 0.0 | 2.0 | 0.00 | 0.06 | 0.06 | 87 | 1005.9 |
| 20260904194530 | 73 | 117 | 0.0 | 1.0 | 0.00 | 0.06 | 0.06 | 87 | 1005.8 |
| 20260904193032 | 72 | 117 | 0.0 | 1.0 | 0.00 | 0.06 | 0.06 | 86 | 1005.8 |
| 20260904191539 | 72 | 117 | 0.0 | 1.0 | 0.00 | 0.06 | 0.06 | 87 | 1005.7 |
| 20260904190033 | 72 | 117 | 0.0 | 0.0 | 0.00 | 0.06 | 0.06 | 86 | 1005.9 |
| 20260904184528 | 73 | 117 | 0.0 | 1.0 | 0.00 | 0.06 | 0.06 | 86 | 1006.2 |
| 20260904183024 | 77 | 117 | 0.0 | 2.0 | 0.00 | 0.06 | 0.06 | 82 | 1006.1 |
| 20260904181521 | 74 | 119 | 1.0 | 3.0 | 0.03 | 0.06 | 0.06 | 85 | 1006.1 |
| 20260904180021 | 73 | 13 | 0.0 | 1.0 | 0.06 | 0.06 | 0.06 | 88 | 1006.3 |
| 20260904174519 | 69 | 13 | 0.0 | 1.0 | 0.06 | 0.06 | 0.06 | 87 | 1006.3 |
| 20260904173030 | 70 | 13 | 0.0 | 1.0 | 0.06 | 0.06 | 0.06 | 86 | 1006.4 |
| 20260904171517 | 74 | 14 | 0.0 | 6.0 | 0.03 | 0.03 | 0.03 | 80 | 1006.5 |
| 20260904170016 | 75 | 156 | 0.0 | 0.0 | 0.00 | 0.00 | 0.00 | 74 | 1006.3 |
| 20260904164516 | 77 | 156 | 1.0 | 5.0 | 0.00 | 0.00 | 0.00 | 66 | 1006.3 |
| 20260904163011 | 77 | 343 | 1.0 | 6.0 | 0.00 | 0.00 | 0.00 | 66 | 1006.4 |
| 20260904161510 | 76 | 351 | 1.0 | 4.0 | 0.00 | 0.00 | 0.00 | 69 | 1006.5 |
| 20260904160008 | 76 | 63 | 0.0 | 2.0 | 0.00 | 0.00 | 0.00 | 72 | 1007.0 |
| 20260904154506 | 77 | 78 | 2.0 | 3.0 | 0.00 | 0.00 | 0.00 | 68 | 1006.9 |
| 20260904153003 | 76 | 131 | 1.0 | 3.0 | 0.00 | 0.00 | 0.00 | 76 | 1006.9 |
| 20260904151559 | 74 | 153 | 1.0 | 6.0 | 0.00 | 0.00 | 0.00 | 83 | 1007.0 |
| 20260904144606 | 73 | 92 | 1.0 | 4.0 | 0.00 | 0.01 | 0.00 | 81 | 1007.2 |
| 20260904143056 | 73 | 37 | 0.0 | 4.0 | 0.00 | 0.01 | 0.00 | 84 | 1007.2 |
| 20260904141550 | 71 | 30 | 1.0 | 2.0 | 0.00 | 0.01 | 0.00 | 84 | 1007.5 |
| 20260904140056 | 70 | 117 | 0.0 | 1.0 | 0.00 | 0.01 | 0.00 | 86 | 1007.6 |
| 20260904134548 | 69 | 117 | 1.0 | 3.0 | 0.00 | 0.01 | 0.00 | 88 | 1007.6 |
| 20260904133040 | 67 | 52 | 1.0 | 2.0 | 0.00 | 0.01 | 0.00 | 89 | 1007.7 |
| 20260904131537 | 66 | 50 | 0.0 | 1.0 | 0.00 | 0.01 | 0.00 | 89 | 1007.7 |
| 20260904130036 | 66 | 50 | 1.0 | 4.0 | 0.00 | 0.01 | 0.00 | 90 | 1007.6 |
| 20260904124535 | 66 | 98 | 0.0 | 3.0 | 0.00 | 0.03 | 0.00 | 90 | 1007.8 |
| 20260904123032 | 65 | 34 | 0.0 | 3.0 | 0.00 | 0.03 | 0.00 | 91 | 1007.8 |
| 20260904121532 | 65 | 38 | 0.0 | 2.0 | 0.00 | 0.03 | 0.00 | 91 | 1007.8 |
| 20260904120030 | 64 | 28 | 1.0 | 3.0 | 0.00 | 0.03 | 0.00 | 91 | 1007.9 |
| 20260904114537 | 63 | 147 | 0.0 | 1.0 | 0.00 | 0.06 | 0.00 | 91 | 1007.8 |
| 20260904113033 | 63 | 147 | 0.0 | 1.0 | 0.00 | 0.06 | 0.00 | 91 | 1007.6 |
| 20260904111527 | 62 | 147 | 0.0 | 1.0 | 0.00 | 0.06 | 0.00 | 91 | 1007.7 |
| 20260904110027 | 62 | 147 | 0.0 | 1.0 | 0.00 | 0.06 | 0.00 | 91 | 1007.5 |
| 20260904104527 | 61 | 147 | 0.0 | 0.0 | 0.00 | 0.07 | 0.00 | 91 | 1007.6 |
| 20260904103029 | 61 | 147 | 0.0 | 1.0 | 0.00 | 0.07 | 0.00 | 91 | 1007.4 |
| 20260904101526 | 61 | 153 | 0.0 | 1.0 | 0.00 | 0.07 | 0.00 | 91 | 1007.3 |
| 20260904100024 | 62 | 144 | 0.0 | 1.0 | 0.00 | 0.07 | 0.00 | 91 | 1007.2 |
| 20260904094535 | 62 | 144 | 0.0 | 2.0 | 0.00 | 0.08 | 0.00 | 91 | 1007.2 |
| 20260904093020 | 63 | 144 | 0.0 | 2.0 | 0.00 | 0.08 | 0.00 | 91 | 1007.3 |
| 20260904091521 | 63 | 144 | 0.0 | 0.0 | 0.00 | 0.08 | 0.00 | 91 | 1007.3 |
| 20260904090018 | 63 | 144 | 0.0 | 2.0 | 0.00 | 0.08 | 0.00 | 91 | 1007.4 |
| 20260904084518 | 63 | 144 | 1.0 | 2.0 | 0.00 | 0.18 | 0.00 | 91 | 1007.6 |
| 20260904083017 | 63 | 144 | 0.0 | 0.0 | 0.00 | 0.18 | 0.00 | 91 | 1007.5 |
| 20260904081518 | 63 | 144 | 0.0 | 1.0 | 0.00 | 0.18 | 0.00 | 91 | 1007.4 |
| 20260904080016 | 63 | 144 | 0.0 | 1.0 | 0.00 | 0.18 | 0.00 | 91 | 1007.2 |
| 20260904074516 | 63 | 144 | 0.0 | 0.0 | 0.00 | 0.18 | 0.00 | 91 | 1007.2 |
| 20260904073013 | 64 | 145 | 0.0 | 2.0 | 0.00 | 0.18 | 0.00 | 91 | 1007.6 |
| 20260904071516 | 64 | 145 | 0.0 | 1.0 | 0.00 | 0.18 | 0.00 | 91 | 1007.6 |
| 20260904070015 | 64 | 145 | 1.0 | 2.0 | 0.00 | 0.18 | 0.00 | 91 | 1007.8 |
| 20260904064510 | 64 | 145 | 0.0 | 3.0 | 0.00 | 0.19 | 0.00 | 91 | 1007.8 |
| 20260904063012 | 63 | 69 | 0.0 | 2.0 | 0.00 | 0.19 | 0.00 | 91 | 1007.9 |